CW4352 Weather Reports


time (UTC)temp
C
wind
direction
speed
KPH
gust
KPH
rain 1hr
cm
rain 24hr
cm
rain mn
cm
humidity
%
barometer
mb
20260510034205 13 30 0.0 0.0 0.00 0.00 0.00 88 1007.9
20260510033704 13 30 0.0 1.6 0.00 0.00 0.00 88 1007.9
20260510031205 13 30 0.0 0.0 0.00 0.00 0.00 86 1008.3
20260510030704 13 30 0.0 0.0 0.00 0.00 0.00 86 1008.3
20260510030205 14 30 0.0 3.2 0.00 0.00 0.00 85 1008.3
20260510024705 14 30 0.0 0.0 0.00 0.00 0.00 84 1008.3
20260510024204 14 30 0.0 0.0 0.00 0.00 0.00 84 1008.4
20260510023705 14 30 0.0 0.0 0.00 0.00 0.00 84 1008.4
20260510021704 14 30 0.0 4.8 0.00 0.00 0.00 82 1008.4
20260510020204 15 30 3.2 8.0 0.00 0.00 0.00 81 1008.4
20260510014204 15 30 1.6 9.7 0.00 0.00 0.00 79 1009.0
20260510013704 15 29 0.0 4.8 0.00 0.00 0.00 79 1009.0
20260510013204 15 29 3.2 8.0 0.00 0.00 0.00 80 1009.0
20260510011704 15 29 1.6 8.0 0.00 0.00 0.00 81 1009.0
20260510011205 15 29 1.6 4.8 0.00 0.00 0.00 81 1009.0
20260510004704 15 29 1.6 8.0 0.00 0.00 0.00 81 1009.0
20260510003705 15 29 1.6 19.3 0.00 0.00 0.00 82 1009.4
20260510001705 14 40 1.6 9.7 0.00 0.00 0.00 83 1009.4
20260510001205 14 40 3.2 4.8 0.00 0.00 0.00 83 1009.4
20260510000704 14 41 3.2 4.8 0.00 0.00 0.00 83 1009.4
20260510000204 14 42 3.2 4.8 0.00 0.00 0.00 83 1009.1
20260509234704 14 46 1.6 3.2 0.00 0.00 0.00 83 1009.0
20260509234205 14 46 1.6 3.2 0.00 0.00 0.00 81 1009.1
20260509233704 14 46 1.6 4.8 0.00 0.00 0.00 80 1009.1
20260509233205 14 46 1.6 3.2 0.00 0.00 0.00 80 1009.1
20260509224705 15 46 0.0 0.0 0.00 0.00 0.00 74 1009.4
20260509224205 15 46 0.0 3.2 0.00 0.00 0.00 73 1009.5
20260509223205 15 46 0.0 0.0 0.00 0.00 0.00 72 1009.5
20260509221704 15 46 0.0 0.0 0.00 0.00 0.00 71 1009.5
20260509220205 15 46 0.0 1.6 0.00 0.00 0.00 71 1009.4
20260509213705 16 46 0.0 1.6 0.00 0.00 0.00 71 1009.5
20260509213204 16 46 0.0 3.2 0.00 0.00 0.00 71 1009.5
20260509211705 16 46 0.0 3.2 0.00 0.00 0.00 70 1009.6
20260509203704 16 46 0.0 3.2 0.00 0.00 0.00 68 1009.7
20260509201205 16 46 0.0 0.0 0.00 0.00 0.00 66 1009.7
20260509200205 17 46 0.0 0.0 0.00 0.00 0.00 65 1009.0
20260509194705 17 46 0.0 0.0 0.00 0.00 0.00 63 1009.0
20260509194204 17 46 0.0 0.0 0.00 0.00 0.00 62 1009.0
20260509193204 17 46 0.0 0.0 0.00 0.00 0.00 62 1009.0
20260509190704 18 46 0.0 0.0 0.00 0.00 0.00 59 1009.0
20260509190205 18 46 0.0 0.0 0.00 0.00 0.00 58 1009.0
20260509174204 22 46 1.6 3.2 0.00 0.00 0.00 47 1008.8
20260509173204 22 46 1.6 8.0 0.00 0.00 0.00 46 1008.7
20260509171704 22 46 3.2 8.0 0.00 0.00 0.00 46 1008.7
20260509171204 22 46 1.6 4.8 0.00 0.00 0.00 46 1008.7
20260509163704 23 46 1.6 8.0 0.00 0.00 0.00 44 1009.0
20260509163205 23 46 1.6 8.0 0.00 0.00 0.00 44 1009.0
20260509161704 23 45 3.2 4.8 0.00 0.00 0.00 40 1009.3
20260509161204 24 49 1.6 4.8 0.00 0.00 0.00 41 1009.3
20260509154205 24 56 1.6 4.8 0.00 0.00 0.00 40 1009.4
20260509153705 24 56 1.6 4.8 0.00 0.00 0.00 41 1009.4
20260509151704 24 48 1.6 4.8 0.00 0.00 0.00 39 1009.4
20260509150704 24 45 0.0 4.8 0.00 0.00 0.00 39 1009.5
20260509144704 24 45 1.6 4.8 0.00 0.00 0.00 38 1009.5
20260509144204 24 42 3.2 4.8 0.00 0.00 0.00 42 1009.5
20260509140204 23 46 3.2 4.8 0.00 0.00 0.00 42 1009.8
20260509134204 24 47 3.2 8.0 0.00 0.00 0.00 38 1010.1
20260509133204 24 51 1.6 8.0 0.00 0.00 0.00 42 1010.1
20260509131204 23 59 1.6 8.0 0.00 0.00 0.00 39 1010.6
20260509130204 24 75 3.2 16.1 0.00 0.00 0.00 41 1010.6
20260509121704 24 44 0.0 4.8 0.00 0.00 0.00 41 1010.7
20260509121204 24 46 3.2 8.0 0.00 0.00 0.00 41 1010.7
20260509120204 23 46 1.6 8.0 0.00 0.00 0.00 41 1010.8
20260509114704 23 42 0.0 4.8 0.00 0.00 0.00 41 1011.0
20260509114204 23 42 1.6 4.8 0.00 0.00 0.00 43 1011.0
20260509113204 23 42 3.2 8.0 0.00 0.00 0.00 44 1011.0
20260509111704 23 41 3.2 4.8 0.00 0.00 0.00 45 1011.7
20260509110705 22 40 3.2 8.0 0.00 0.00 0.00 46 1011.7
20260509110204 22 39 1.6 8.0 0.00 0.00 0.00 46 1011.7
20260509104704 22 27 1.6 9.7 0.00 0.00 0.00 50 1011.7
20260509104204 22 27 3.2 8.0 0.00 0.00 0.00 50 1011.7
20260509103704 22 18 1.6 4.8 0.00 0.00 0.00 51 1011.7
20260509101704 22 32 3.2 8.0 0.00 0.00 0.00 52 1011.7
20260509100205 22 30 3.2 4.8 0.00 0.00 0.00 56 1011.7
20260509094204 21 27 3.2 8.0 0.00 0.00 0.00 56 1011.7
20260509090204 21 23 1.6 8.0 0.00 0.00 0.00 55 1012.0
20260509084704 21 22 3.2 4.8 0.00 0.00 0.00 57 1012.0
20260509084204 21 21 3.2 4.8 0.00 0.00 0.00 54 1012.0
20260509083704 21 16 1.6 4.8 0.00 0.00 0.00 54 1012.0
20260509083204 21 16 1.6 8.0 0.00 0.00 0.00 55 1012.0
20260509074704 20 355 0.0 3.2 0.00 0.00 0.00 57 1012.1
20260509073704 20 355 1.6 3.2 0.00 0.00 0.00 58 1012.1
20260509071704 18 355 0.0 3.2 0.00 0.00 0.00 63 1012.2
20260509070204 18 355 0.0 4.8 0.00 0.00 0.00 65 1012.2
20260509064204 17 355 1.6 3.2 0.00 0.00 0.00 66 1012.2
20260509061204 15 355 0.0 4.8 0.00 0.00 0.00 72 1012.2
20260509053704 13 355 3.2 4.8 0.00 0.00 0.00 77 1012.1
20260509053204 13 355 1.6 9.7 0.00 0.00 0.00 77 1012.1
20260509050704 12 355 1.6 8.0 0.00 0.00 0.00 78 1011.7
20260509050203 12 355 3.2 8.0 0.00 0.00 0.00 79 1011.7
20260509044204 11 355 0.0 3.2 0.00 0.00 0.00 81 1011.6
20260509043704 11 355 0.0 3.2 0.00 0.00 0.00 80 1011.6
20260509043204 11 355 1.6 8.0 0.00 0.00 0.00 80 1011.6
20260509040204 12 355 3.2 8.0 0.00 0.00 0.00 79 1011.6
20260509034704 12 355 1.6 4.8 0.00 0.00 0.00 78 1011.6